Regional Weather Roundup
Issued by NWS Cleveland, OH

Home | Current Version | Previous Version | Graphics & Text | Print | Product List | Glossary On
Versions: 1 2 3 4 5 6 7 8 9 10 11 12 13 14 15 16 17 18 19 20 21 22 23 24 25 26 27 28 29 30 31 32 33 34 35 36 37 38 39 40 41 42 43 44 45 46 47 48 49 50
000
ASUS41 KCLE 220700
RWRCLE
OHIO REGIONAL WEATHER ROUNDUP
NATIONAL WEATHER SERVICE WILMINGTON, OH
300 AM EDT TUE AUG 22 2017

NOTE: "FAIR" INDICATES FEW OR NO CLOUDS BELOW 12,000 FEET WITH NO
SIGNIFICANT WEATHER AND/OR OBSTRUCTIONS TO VISIBILITY.

OHZ001>008-015>018-024>027-034-035-043-044-220800-
   NORTHWEST OHIO

CITY           SKY/WX    TMP DP  RH WIND       PRES   REMARKS
DEFIANCE       FAIR      71  67  87 S7        29.94F
FINDLAY        FAIR      72  68  87 S7        29.96F
TOLEDO EXPRESS FAIR      72  70  93 S9        29.93F
TOLEDO EXEC    FAIR      73  70  90 S8        29.94F
LIMA           FAIR      73  70  90 S8        29.98F
$$

OHZ009>014-019>023-028>033-038-089-220800-
   NORTHEAST OHIO

CITY           SKY/WX    TMP DP  RH WIND       PRES   REMARKS
CLE-HOPKINS    FAIR      78  68  71 S10       29.99F
CLE-LAKEFRONT  FAIR      78  67  68 S8        29.96F
CUY CO. ARPT   NOT AVBL
LORAIN-ELYRIA  FAIR      72  64  76 S8        29.98F
ASHTABULA      FAIR      74  72  93 S6        30.00F
AKRON-CANTON   FAIR      74  67  78 S7        30.03F
WOOSTER        NOT AVBL
MANSFIELD      FAIR      73  68  84 S9        30.02F
YOUNGSTOWN     MOCLDY    74  68  81 S7        30.03F
$$

OHZ042-051>053-060>062-070>072-077>081-220800-
  SOUTHWEST OHIO

CITY           SKY/WX    TMP DP  RH WIND       PRES   REMARKS
CINC-COVINGTON FAIR      75  70  84 S7        30.03F
CINC-LUNKEN    FAIR      73  72  96 S5        30.02F
HAMILTON       FAIR      74  71  91 CALM      30.02F
DAYTON         NOT AVBL
WRIGHT-PAT AFB CLOUDY    76  70  79 S8        30.00F
DAYTON GENERAL FAIR      76  69  79 S8        30.01F
WILMINGTON     FAIR      73  70  90 S8        30.03F
$$

OHZ036-037-039>041-045>050-054>059-063>069-073>076-082>088-220800-
  CENTRAL AND SOUTHEAST OHIO

CITY           SKY/WX    TMP DP  RH WIND       PRES   REMARKS
COLUMBUS       MOCLDY    76  71  85 S7        30.01F
OSU AIRPORT    FAIR      76  71  85 S9        30.01F
BOLTON FIELD   NOT AVBL
RICKENBACK AFB NOT AVBL
NEWARK         FAIR      73  69  87 SW5       30.02F
MARION         FAIR      72  67  84 S9        30.00F
LANCASTER      FAIR      75  69  81 S5        30.03F
ZANESVILLE     FAIR      73  68  84 S5        30.03F
NEW PHILLY     FAIR      72  70  93 SE5       30.04F
$$




USA.gov is the U.S. government's official web portal to all federal, state and local government web resources and services.